Midland, MI

4:20 AM EST on February 21, 2017 (GMT -0500)
Barstow

Weather History for KIKW - March, 2014

Change the Weather History Date:

Wednesday, March 12, 2014

  Actual Average (KMBS) Record (KMBS)
Temperature  
Mean Temperature 24 °F -  
Max Temperature 34 °F 35 °F 64 °F (2012)
Min Temperature 12 °F 21 °F 11 °F (2014)
Degree Days  
Heating Degree Days 42    
Moisture  
Dew Point 14 °F    
Average Humidity 64    
Maximum Humidity 90    
Minimum Humidity 33    
Precipitation  
Precipitation 0.00 in - - ()
Sea Level Pressure  
Sea Level Pressure 29.83 in    
Wind  
Wind Speed 8 mph (North)    
Max Wind Speed 21 mph    
Max Gust Speed 26 mph    
Visibility 8 miles    
Events Snow    
Averages and records for this station are not official NWS values.
T = Trace of Precipitation, MM = Missing Value Source: NWS Daily Summary

Daily Weather History Graph

Daily Weather History Graph

Search for Another Location

Airport or City:

Trip Planner

Search our weather history database for the weather conditions in past years. The results will help you decide how hot, cold, wet, or windy it might be!

Date:

Astronomy

Mar. 12, 2014 Rise Set
Actual Time 7:54 AM EDT 7:39 PM EDT
Civil Twilight 7:26 AM EDT 8:08 PM EDT
Nautical Twilight 6:52 AM EDT 8:41 PM EDT
Astronomical Twilight 6:19 AM EDT 9:15 PM EDT
Moon 4:04 PM EDT (3/12) 5:31 AM EDT (3/12)
Length of Visible Light 12h 42m
Length of Day
11h 45m
Waxing Gibbous, 85% of the Moon is Illuminated
Mar 12
Waxing Gibbous
Mar 16
Full
Mar 23
Last Quarter
Mar 30
New
Apr 7
First Quarter

Hourly Weather History & Observations

Time (EDT) Temp. Windchill Dew Point Humidity Pressure Visibility Wind Dir Wind Speed Gust Speed Precip Events Conditions
12:13 AM 34.7 °F 30.6 °F 29.8 °F 82% 29.78 in 10.0 mi NE 4.6 mph - N/A   Overcast
12:33 AM 34.3 °F 31.4 °F 30.0 °F 84% 29.79 in 7.0 mi NNE 3.5 mph - N/A Snow Light Snow
12:53 AM 33.8 °F - 30.2 °F 87% 29.78 in 10.0 mi Calm Calm - N/A   Overcast
1:13 AM 33.6 °F - 30.2 °F 87% 29.76 in 10.0 mi Calm Calm - N/A   Mostly Cloudy
1:33 AM 33.8 °F - 30.2 °F 87% 29.76 in 10.0 mi Calm Calm - N/A   Scattered Clouds
1:53 AM 33.4 °F - 30.2 °F 88% 29.77 in 10.0 mi Calm Calm - N/A   Mostly Cloudy
2:13 AM 34.9 °F 29.0 °F 27.1 °F 73% 29.76 in 10.0 mi North 6.9 mph - N/A   Overcast
2:33 AM 34.2 °F 26.2 °F 23.4 °F 65% 29.76 in 10.0 mi NNE 10.4 mph 17.3 mph N/A   Overcast
2:53 AM 33.1 °F 24.9 °F 23.5 °F 68% 29.76 in 10.0 mi North 10.4 mph 16.1 mph N/A   Overcast
3:14 AM 32.4 °F 24.0 °F 23.0 °F 68% 29.75 in 7.0 mi North 10.4 mph 17.3 mph N/A Snow Light Snow
3:33 AM 32.0 °F 23.6 °F 23.2 °F 70% 29.75 in 5.0 mi NNE 10.4 mph 16.1 mph N/A Snow Light Snow
3:53 AM 31.5 °F 24.2 °F 23.7 °F 73% 29.73 in 5.0 mi North 8.1 mph - N/A Snow Light Snow
4:14 AM 30.4 °F 23.6 °F 24.1 °F 77% 29.71 in 3.0 mi North 6.9 mph - N/A Snow Light Snow
4:33 AM 30.2 °F 22.6 °F 24.4 °F 79% 29.70 in 5.0 mi North 8.1 mph - N/A Snow Light Snow
4:53 AM 30.2 °F 25.4 °F 23.4 °F 76% 29.70 in 7.0 mi North 4.6 mph - N/A Snow Light Snow
5:13 AM 31.3 °F 22.7 °F 21.6 °F 67% 29.70 in 10.0 mi North 10.4 mph - N/A   Overcast
5:33 AM 31.5 °F 25.8 °F 21.7 °F 67% 29.71 in 10.0 mi NNE 5.8 mph - N/A   Overcast
5:53 AM 31.1 °F 22.4 °F 23.0 °F 72% 29.72 in 5.0 mi North 10.4 mph 17.3 mph N/A Snow Light Snow
6:13 AM 30.9 °F 22.2 °F 23.7 °F 75% 29.73 in 5.0 mi North 10.4 mph 16.1 mph N/A Snow Light Snow
6:33 AM 30.2 °F 20.8 °F 24.3 °F 79% 29.73 in 4.0 mi North 11.5 mph 20.7 mph N/A Snow Light Snow
6:53 AM 29.8 °F 20.9 °F 25.0 °F 82% 29.74 in 2.5 mi North 10.4 mph 19.6 mph N/A Snow Light Snow
7:13 AM 29.1 °F 20.0 °F 25.7 °F 87% 29.74 in 2.0 mi North 10.4 mph - N/A Snow Light Snow
7:33 AM 28.9 °F 21.1 °F 26.2 °F 90% 29.73 in 2.0 mi North 8.1 mph 17.3 mph N/A Snow Light Snow
7:54 AM 28.9 °F 19.8 °F 26.1 °F 89% 29.73 in 2.5 mi North 10.4 mph 16.1 mph N/A Snow Light Snow
8:13 AM 28.8 °F 20.9 °F 25.7 °F 88% 29.73 in 2.0 mi North 8.1 mph - N/A Snow Light Snow
8:33 AM 28.6 °F 18.7 °F 25.0 °F 86% 29.74 in 1.8 mi NNE 11.5 mph 18.4 mph N/A Snow Light Snow
8:41 AM 28.4 °F 20.4 °F 24.8 °F 86% 29.74 in 1.8 mi NNE 8.1 mph 18.4 mph N/A Snow Light Snow
9:15 AM 28.4 °F 19.1 °F 23.0 °F 80% 29.74 in 1.5 mi North 10.4 mph 19.6 mph N/A Snow Light Snow
9:36 AM 26.6 °F 15.7 °F 23.0 °F 86% 29.75 in 1.5 mi North 12.7 mph 19.6 mph N/A Snow Light Snow
9:40 AM 27.0 °F 15.2 °F 23.0 °F 85% 29.75 in 1.2 mi NNE 15.0 mph 25.3 mph N/A Snow Light Snow
9:53 AM 26.6 °F 15.2 °F 22.1 °F 83% 29.76 in 1.2 mi NNE 13.8 mph 18.4 mph N/A Snow Light Snow
10:13 AM 26.4 °F 16.0 °F 21.2 °F 81% 29.76 in 2.5 mi NNE 11.5 mph 21.9 mph N/A Snow Light Snow
10:33 AM 26.1 °F 14.5 °F 19.2 °F 75% 29.77 in 10.0 mi North 13.8 mph 20.7 mph N/A Snow Light Snow
10:53 AM 24.8 °F 10.3 °F 16.5 °F 71% 29.77 in 10.0 mi NNE 20.7 mph 26.5 mph N/A   Overcast
11:13 AM 24.6 °F 13.8 °F 15.8 °F 69% 29.77 in 10.0 mi NNE 11.5 mph 19.6 mph N/A   Overcast
11:33 AM 23.9 °F 11.7 °F 16.2 °F 72% 29.78 in 7.0 mi North 13.8 mph 19.6 mph N/A Snow Light Snow
11:53 AM 23.0 °F 10.1 °F 13.5 °F 67% 29.79 in 10.0 mi NNE 15.0 mph 23.0 mph N/A   Overcast
12:13 PM 22.8 °F 9.9 °F 11.7 °F 62% 29.79 in 10.0 mi NNE 15.0 mph 26.5 mph N/A   Scattered Clouds
12:33 PM 22.8 °F 9.9 °F 11.7 °F 62% 29.80 in 10.0 mi North 15.0 mph 21.9 mph N/A   Clear
12:53 PM 23.2 °F 12.0 °F 11.3 °F 60% 29.80 in 10.0 mi North 11.5 mph 18.4 mph N/A   Clear
1:13 PM 23.4 °F 12.2 °F 11.3 °F 60% 29.80 in 10.0 mi NNW 11.5 mph 20.7 mph N/A   Scattered Clouds
1:33 PM 23.4 °F 12.2 °F 10.6 °F 58% 29.80 in 10.0 mi North 11.5 mph 19.6 mph N/A   Clear
1:53 PM 23.0 °F 9.2 °F 10.4 °F 59% 29.81 in 10.0 mi North 17.3 mph 23.0 mph N/A   Clear
2:13 PM 23.0 °F 11.7 °F 10.0 °F 58% 29.81 in 10.0 mi North 11.5 mph 17.3 mph N/A   Clear
2:33 PM 22.6 °F 10.7 °F 8.6 °F 55% 29.81 in 10.0 mi North 12.7 mph 20.7 mph N/A   Clear
2:53 PM 23.0 °F 11.7 °F 9.0 °F 55% 29.82 in 10.0 mi NNE 11.5 mph - N/A   Scattered Clouds
3:13 PM 23.2 °F 14.1 °F 9.0 °F 55% 29.82 in 10.0 mi North 8.1 mph 17.3 mph N/A   Scattered Clouds
3:33 PM 23.0 °F 10.6 °F 8.1 °F 53% 29.83 in 10.0 mi North 13.8 mph 20.7 mph N/A   Scattered Clouds
3:53 PM 23.2 °F 12.6 °F 7.9 °F 52% 29.83 in 10.0 mi North 10.4 mph 18.4 mph N/A   Scattered Clouds
4:13 PM 23.0 °F 11.1 °F 7.5 °F 52% 29.84 in 10.0 mi North 12.7 mph 16.1 mph N/A   Scattered Clouds
4:33 PM 23.4 °F 12.2 °F 6.6 °F 49% 29.85 in 10.0 mi NNE 11.5 mph 17.3 mph N/A   Scattered Clouds
4:53 PM 23.9 °F 15.0 °F 5.5 °F 46% 29.86 in 10.0 mi NNE 8.1 mph 18.4 mph N/A   Scattered Clouds
5:13 PM 23.5 °F 13.0 °F 4.1 °F 43% 29.87 in 10.0 mi NNE 10.4 mph 16.1 mph N/A   Scattered Clouds
5:33 PM 23.9 °F 15.8 °F 5.4 °F 45% 29.88 in 10.0 mi North 6.9 mph - N/A   Clear
5:53 PM 23.7 °F 10.5 °F 3.4 °F 42% 29.89 in 10.0 mi NNW 16.1 mph - N/A   Clear
6:13 PM 23.4 °F 16.2 °F 0.7 °F 37% 29.90 in 10.0 mi North 5.8 mph - N/A   Clear
6:33 PM 22.6 °F 13.4 °F -1.5 °F 35% 29.91 in 10.0 mi NNE 8.1 mph - N/A   Clear
6:53 PM 21.9 °F 13.4 °F -3.1 °F 33% 29.92 in 10.0 mi NNE 6.9 mph - N/A   Clear
7:13 PM 21.2 °F 13.6 °F -3.1 °F 34% 29.93 in 10.0 mi NNE 5.8 mph - N/A   Clear
7:33 PM 20.1 °F 12.3 °F -3.1 °F 36% 29.95 in 10.0 mi NE 5.8 mph - N/A   Clear
7:53 PM 19.4 °F - -3.3 °F 37% 29.95 in 10.0 mi Calm Calm - N/A   Clear
8:13 PM 19.0 °F 12.3 °F -3.8 °F 36% 29.96 in 10.0 mi North 4.6 mph - N/A   Clear
8:33 PM 18.9 °F 13.7 °F -4.4 °F 36% 29.97 in 10.0 mi North 3.5 mph - N/A   Clear
8:54 PM 18.3 °F 13.1 °F -4.7 °F 36% 29.98 in 10.0 mi North 3.5 mph - N/A   Clear
9:13 PM 17.6 °F 12.3 °F -4.4 °F 38% 29.99 in 10.0 mi NNW 3.5 mph - N/A   Clear
9:33 PM 16.3 °F - -3.5 °F 42% 30.00 in 10.0 mi Calm Calm - N/A   Clear
9:53 PM 15.8 °F 3.4 °F -0.8 °F 48% 30.02 in 10.0 mi NW 10.4 mph - N/A   Clear
10:13 PM 15.6 °F 5.9 °F 1.2 °F 53% 30.03 in 10.0 mi WNW 6.9 mph - N/A   Clear
10:33 PM 14.7 °F 2.9 °F 0.3 °F 53% 30.03 in 10.0 mi NW 9.2 mph - N/A   Clear
10:53 PM 14.4 °F 4.3 °F -0.0 °F 53% 30.04 in 10.0 mi NW 6.9 mph - N/A   Clear
11:13 PM 13.6 °F 2.5 °F -0.4 °F 54% 30.04 in 10.0 mi NW 8.1 mph - N/A   Clear
11:33 PM 13.1 °F 2.8 °F -0.2 °F 55% 30.04 in 10.0 mi NNW 6.9 mph - N/A   Clear
11:53 PM 12.6 °F 3.4 °F -0.6 °F 56% 30.04 in 10.0 mi NNW 5.8 mph - N/A   Clear